Torna al catalogo

COSMOS 2251 DEB

AttivoLEO
NORAD 34574·DEBRIS·🇷🇺 Russia

Lanciato Jun 16, 1993 da Plesetsk Cosmodrome

Loading…

Prossimi Passaggi (prossime 24 ore)

TLE

AggiornatoSource: Space-Track

Epoca: Sep 13, 2026, 23:19 UTC

1 34574U 93036VL  26256.97205655  .00003070  00000-0  45750-3 0  9998
2 34574  74.0656 228.2743 0063985 180.3326 236.9034 14.73945012928300

Traccia COSMOS 2251 DEB in tempo reale con AllMySat

Download on the App Store